Temp
16 16 16 16 16 16 16 16 16 16 16 17 16 15 16 18 18 18 18 18 18 18 18 17 17 16 13 11 11 10 11 11 11 11 11 11 11 11 12 13 13 13 13 13 14 14 14 15 15 15 14 11 7 5 4 5 6 8 11 12 10 10 12 12 12 14 12 10 9 10 10 11 12 12 11 11 11 11 10 10 9 8 9 10 9 9 11
16 17 16 16 16 16 16 16 15 15 15 15 14 15 17 17 17 18 18 18 18 18 17 17 17 15 12 12 12 10 10 11 11 11 12 11 11 12 12 13 12 12 12 12 13 14 14 15 14 13 14 10 5 3 4 4 7 8 9 9 9 11 13 12 12 13 13 11 12 11 11 12 13 12 10 9 10 10 9 9 9 8 9 10 9 9 11
16 17 16 16 16 16 16 16 15 14 14 14 14 14 15 16 17 17 18 18 17 16 15 16 16 16 14 14 13 12 11 10 10 11 11 10 11 11 11 11 11 12 12 12 12 13 13 14 13 12 13 10 4 3 4 4 6 6 4 5 7 10 13 12 11 12 12 12 12 12 12 12 12 12 10 9 9 9 9 9 8 8 8 8 8 8 10
16 16 16 16 16 15 15 15 15 14 14 14 14 14 15 17 17 17 18 18 16 15 14 15 16 16 15 14 14 14 13 11 9 9 10 10 10 11 11 11 11 12 12 12 13 13 13 13 12 11 12 11 6 4 4 4 5 4 4 4 6 9 11 11 11 12 11 12 12 12 11 11 11 11 9 9 8 8 8 8 7 7 7 6 8 8 7
16 16 16 16 15 15 15 15 15 14 14 14 14 14 15 16 16 16 16 17 16 15 14 14 15 14 14 14 14 14 14 13 10 10 10 10 10 10 11 11 11 12 12 12 13 14 13 12 12 11 11 11 8 4 4 5 4 4 5 6 7 9 10 10 10 11 11 11 11 11 11 11 10 10 9 9 8 7 7 7 7 7 6 6 8 8 7
16 15 15 15 15 15 15 15 14 14 14 14 14 14 15 16 15 14 13 15 16 15 14 13 13 14 14 13 14 14 15 14 13 12 10 10 10 11 12 12 12 13 12 12 13 13 13 13 12 11 10 10 9 7 6 6 5 5 7 7 7 9 9 9 9 10 10 10 10 10 11 11 10 9 9 9 8 7 7 7 7 7 6 6 7 7 7
15 15 15 15 15 15 15 15 14 14 15 14 14 15 15 15 15 13 12 13 14 14 12 12 13 14 14 14 14 14 14 14 14 13 12 11 11 11 13 13 12 12 12 12 12 12 13 12 11 10 10 9 10 10 8 7 6 6 8 7 7 8 9 9 8 9 9 10 10 10 10 10 9 8 8 8 8 8 7 7 7 7 6 7 7 7 7
15 15 15 15 15 15 15 15 15 14 14 14 14 14 14 14 15 14 13 14 13 12 11 12 13 14 14 14 14 14 14 14 13 12 12 12 12 11 12 12 12 12 12 12 12 11 11 11 10 9 9 9 9 10 9 8 8 8 8 7 7 8 9 9 9 9 10 10 11 11 10 9 8 7 7 7 7 7 6 6 7 6 6 6 6 6 5
15 15 15 15 15 15 15 15 15 14 14 14 14 14 13 13 13 13 15 15 13 13 13 13 14 15 15 14 14 13 13 12 12 12 11 11 11 11 11 11 11 11 12 11 11 9 8 9 9 8 8 8 9 9 8 8 8 8 8 7 7 8 9 9 9 9 10 11 11 10 9 8 7 5 6 6 6 6 5 6 6 6 5 5 5 4 3
15 15 15 15 15 15 15 14 14 14 13 13 14 14 13 12 13 13 14 15 14 14 15 15 15 15 13 13 13 13 12 11 12 12 11 9 9 9 10 10 10 11 12 11 9 7 6 7 7 7 7 7 8 8 8 7 8 8 8 7 7 7 7 8 9 9 9 11 11 10 8 7 6 5 5 6 6 5 5 5 6 6 5 3 2 2 2
15 15 15 15 15 15 15 14 14 14 13 13 13 13 13 13 14 14 15 16 14 13 15 16 15 14 13 12 12 12 12 11 11 12 12 10 9 8 8 9 10 11 10 7 5 4 5 5 6 6 7 7 8 8 7 7 7 7 7 7 7 7 7 8 9 8 9 10 10 9 9 7 5 5 5 6 5 4 4 4 5 4 3 2 1 1 1
15 15 15 15 15 14 14 14 14 14 13 13 12 12 13 13 14 15 15 16 15 14 15 14 12 12 12 11 11 11 11 11 10 10 11 10 9 8 8 9 10 9 7 4 4 4 5 5 6 6 7 7 7 7 7 7 7 7 7 7 7 7 7 8 9 8 8 9 9 8 8 6 5 5 5 5 5 4 4 4 4 2 1 1 1 1 1
15 15 14 14 14 14 14 14 14 14 13 13 12 12 13 13 14 14 15 15 15 15 15 12 10 10 11 11 11 11 10 9 8 8 9 9 9 8 7 7 8 7 4 4 5 5 6 7 7 7 7 7 7 7 7 6 6 7 7 7 7 7 7 8 8 9 8 8 8 7 6 6 5 5 5 4 4 4 3 3 2 0 -0 0 -1 -0 -0
15 14 14 14 14 14 14 14 14 14 13 12 12 12 13 13 13 14 14 15 15 13 13 13 11 10 11 11 11 11 10 9 8 8 8 8 8 8 7 5 5 4 4 4 5 6 8 10 10 9 8 7 8 8 6 6 6 6 6 7 7 7 7 7 8 8 8 7 7 7 7 5 4 3 4 4 3 3 2 2 1 -0 -1 -0 -1 -1 -1
14 14 14 14 14 14 14 14 14 13 12 12 12 12 12 13 13 13 13 14 15 13 12 12 11 10 11 11 11 11 12 11 11 10 8 6 7 7 5 4 4 4 4 5 6 8 10 11 12 12 11 10 11 10 7 6 6 6 6 7 7 7 7 7 7 8 8 7 6 7 7 5 3 2 3 4 3 3 3 2 2 -0 -1 -0 -1 -2 -2
14 14 14 14 14 14 14 14 13 13 12 12 12 12 12 12 13 13 13 14 15 14 10 6 5 6 10 11 11 11 12 12 12 12 10 9 8 6 5 4 4 4 4 5 7 9 11 11 12 12 12 12 12 11 9 8 7 7 6 7 7 8 8 7 7 7 8 6 5 6 6 4 2 2 3 3 3 3 2 2 2 -0 -1 -0 -0 -2 -2
14 14 14 14 14 14 14 13 13 12 12 11 11 11 12 12 12 13 13 13 14 11 5 1 2 6 9 11 11 11 11 11 12 12 12 11 9 7 5 4 4 4 4 7 9 10 11 12 12 12 12 11 11 11 11 10 8 7 7 7 7 7 7 7 7 6 6 6 5 6 5 2 1 2 2 2 2 3 2 2 1 -1 -1 -1 -1 -2 -2
14 14 13 13 13 13 13 12 12 12 11 11 12 11 11 12 12 12 13 13 13 8 2 -1 1 5 7 7 8 9 9 10 11 11 12 12 10 9 7 6 6 6 5 8 11 11 11 12 11 11 11 11 10 10 10 8 7 7 7 7 6 5 5 6 5 5 5 5 5 6 4 1 1 2 2 2 2 3 1 0 -1 -1 -1 -1 -2 -2 -2
13 13 13 13 13 13 12 12 12 12 12 12 12 11 11 11 12 12 12 12 11 8 2 -1 0 3 2 2 4 7 8 9 9 10 12 12 10 8 7 7 8 8 7 9 11 11 11 11 11 10 10 10 10 9 7 6 5 6 5 5 4 2 3 5 5 4 4 5 5 5 4 1 -0 1 2 2 1 -0 -1 -1 -1 -1 -2 -2 -3 -3 -4
13 13 13 13 13 13 12 12 12 12 12 11 11 11 11 11 12 12 12 10 7 5 1 -2 -1 0 -0 0 3 4 6 8 8 9 11 11 9 8 9 10 9 9 9 10 10 11 11 10 10 10 10 10 10 8 6 4 4 5 4 3 3 2 2 3 4 3 3 3 4 3 2 1 -0 0 1 0 -1 -2 -2 -1 -1 -2 -3 -3 -4 -4 -5
13 13 13 13 13 13 13 12 12 12 11 11 11 11 10 10 11 12 12 10 8 6 2 -1 -1 -1 -2 -2 -1 -1 2 3 3 4 6 8 8 9 10 11 9 9 9 9 9 10 10 9 10 10 9 10 10 8 6 4 4 4 4 3 2 2 2 2 2 3 2 1 3 2 1 -0 -0 -1 -1 -1 -1 -1 -1 -2 -2 -3 -3 -4 -5 -5 -5
13 13 13 13 13 13 13 13 12 12 12 11 12 11 10 10 10 11 12 10 6 3 1 -1 -2 -2 -3 -3 -3 -3 -2 -2 -2 -1 1 3 7 9 9 9 9 7 7 8 8 9 10 9 9 9 9 8 8 6 5 5 4 4 4 4 2 2 2 1 1 2 2 1 2 2 -0 -1 -0 -0 -1 -1 -1 -1 -1 -3 -3 -4 -4 -5 -5 -6 -6
13 13 13 13 13 13 13 13 12 13 12 12 12 11 11 10 10 11 12 8 2 0 -0 -1 -1 -1 -2 -2 -2 -3 -3 -3 -2 -2 -2 0 6 8 7 7 6 6 6 6 6 7 8 9 8 8 7 6 5 6 5 4 3 3 3 2 2 2 1 1 2 2 1 2 2 -0 -2 -1 -1 -1 -0 -1 -2 -2 -2 -4 -4 -5 -5 -5 -5 -6 -7
13 13 13 13 13 13 13 13 12 13 12 12 12 12 11 11 10 10 11 8 5 4 3 1 1 1 0 -1 -2 -2 -2 -3 -3 -3 -3 -2 3 7 6 3 3 4 6 5 4 5 7 8 8 8 6 4 4 5 4 3 3 3 2 1 2 2 1 1 1 0 -1 1 1 -1 -3 -2 -2 -1 -1 -2 -3 -3 -3 -4 -5 -6 -6 -5 -6 -7 -7
13 13 13 13 13 13 13 13 13 12 12 12 12 12 11 11 10 10 11 10 10 10 9 5 3 1 -1 -1 -1 -2 -2 -3 -4 -3 -3 -3 -1 2 3 1 0 2 4 4 4 6 7 7 7 7 6 4 4 4 3 2 2 2 1 -1 -0 1 1 0 -0 -1 -1 0 1 -1 -2 -2 -2 -2 -2 -3 -3 -3 -4 -5 -5 -5 -6 -6 -6 -7 -7
13 13 13 12 12 12 13 13 12 12 12 12 12 11 11 11 10 10 10 11 11 12 10 7 4 1 -0 -0 -1 -2 -2 -3 -4 -3 -3 -3 -3 -2 -2 -1 0 2 2 3 5 6 7 6 5 4 4 4 4 3 2 2 1 1 -0 -1 -1 0 -0 -1 -2 -2 -1 -1 -1 -2 -3 -2 -2 -2 -3 -4 -4 -4 -5 -5 -5 -6 -6 -7 -7 -7 -8
13 13 12 12 12 12 13 13 12 12 12 12 12 11 11 11 10 11 10 10 12 13 11 7 4 2 0 -0 -1 -1 -2 -3 -3 -2 -2 -3 -2 -2 -2 -1 1 3 4 5 6 6 6 4 3 3 3 3 3 2 2 1 1 -1 -1 -1 -1 -1 -2 -2 -3 -3 -3 -2 -2 -3 -4 -4 -3 -3 -4 -4 -4 -5 -6 -6 -6 -7 -7 -8 -8 -9 -9
13 13 12 12 12 12 12 13 12 12 11 12 11 11 11 11 11 11 10 10 11 12 10 7 5 4 2 1 0 0 -0 -1 -2 -1 -1 -1 -1 -0 0 1 3 4 5 6 5 5 4 3 3 3 3 3 3 2 2 1 1 -1 -2 -1 -1 -2 -3 -3 -3 -4 -4 -3 -3 -3 -4 -4 -4 -4 -4 -4 -5 -6 -7 -7 -7 -7 -8 -9 -9 -10 -10
13 13 12 12 12 12 12 13 13 12 11 11 11 11 11 11 11 10 10 10 10 9 8 7 6 5 4 3 1 1 1 1 -0 -0 1 1 2 2 2 3 4 4 5 6 5 4 3 3 3 3 3 3 2 2 2 1 -1 -2 -2 -2 -2 -2 -2 -2 -3 -3 -3 -3 -3 -4 -4 -5 -5 -5 -5 -5 -6 -6 -7 -7 -7 -8 -9 -10 -10 -10 -11
13 12 12 12 12 12 12 13 13 12 12 11 11 11 11 11 11 10 10 10 10 10 9 8 7 5 3 3 2 2 2 2 1 1 2 2 3 3 3 3 4 5 5 5 5 4 3 3 3 2 2 3 3 2 1 1 -1 -2 -2 -2 -2 -2 -2 -2 -2 -3 -3 -4 -4 -4 -5 -5 -5 -5 -5 -6 -6 -7 -7 -8 -8 -9 -10 -10 -11 -11 -12
13 12 12 12 12 12 12 13 13 13 12 11 10 11 13 12 11 10 10 11 11 10 10 8 7 5 4 3 3 2 2 2 2 3 3 3 4 4 4 4 4 5 5 5 4 4 3 3 2 2 2 2 2 1 0 -0 -1 -2 -2 -2 -2 -2 -2 -2 -3 -3 -4 -4 -4 -5 -6 -5 -5 -6 -6 -7 -7 -8 -8 -9 -9 -10 -10 -11 -11 -12 -13
12 12 12 12 12 12 12 12 12 12 12 11 10 11 11 11 10 10 11 11 11 11 10 9 7 7 7 5 3 2 2 2 2 3 3 4 5 5 5 5 5 5 5 5 4 3 3 2 1 1 1 2 2 0 -1 -2 -3 -3 -2 -2 -2 -2 -3 -3 -4 -4 -4 -5 -6 -7 -7 -6 -6 -7 -7 -7 -8 -9 -9 -10 -10 -11 -11 -12 -12 -13 -13
12 12 12 12 12 11 12 12 12 12 11 11 10 10 10 10 11 11 11 11 11 10 11 11 10 9 8 6 4 3 3 3 4 4 5 4 4 5 5 6 5 5 5 4 4 3 3 3 2 1 1 2 1 -0 -2 -3 -3 -3 -2 -2 -3 -3 -4 -4 -4 -5 -5 -6 -6 -8 -8 -7 -7 -7 -8 -8 -9 -10 -10 -10 -11 -12 -12 -13 -13 -14 -14
12 12 12 12 12 12 12 12 12 12 11 11 11 10 10 10 11 11 11 11 11 10 10 10 10 10 8 6 6 5 4 5 6 6 5 4 4 5 6 6 6 5 4 4 4 4 3 3 2 1 0 0 0 -1 -2 -3 -3 -2 -3 -3 -3 -4 -5 -5 -5 -6 -6 -7 -7 -7 -7 -7 -7 -8 -9 -9 -10 -11 -11 -12 -12 -13 -13 -14 -14 -14 -15
12 12 12 12 12 12 12 12 12 12 12 11 11 10 10 11 11 11 11 11 11 11 9 9 9 8 7 7 8 6 4 5 6 5 5 5 4 4 5 6 5 4 4 4 4 3 2 2 2 1 -0 -1 -2 -2 -3 -3 -3 -3 -3 -4 -4 -5 -6 -6 -7 -7 -7 -7 -8 -8 -7 -8 -9 -9 -10 -11 -11 -11 -12 -13 -13 -14 -14 -15 -15 -15 -16
12 12 12 12 12 12 12 12 12 12 12 11 11 11 11 11 11 11 11 11 10 10 9 8 7 6 5 7 7 6 5 5 6 5 5 5 4 4 5 6 4 3 4 4 3 2 2 2 1 0 -1 -2 -3 -3 -3 -3 -3 -4 -4 -4 -5 -6 -7 -7 -7 -8 -8 -8 -8 -8 -8 -9 -10 -11 -11 -12 -12 -12 -13 -14 -14 -15 -15 -16 -15 -16 -17
13 12 12 12 12 12 12 11 11 11 11 11 11 11 11 11 12 11 11 10 9 9 8 7 6 4 4 5 6 5 5 6 6 6 5 4 4 5 5 5 4 3 3 3 2 1 1 1 0 -1 -2 -2 -3 -3 -3 -3 -4 -4 -4 -5 -6 -6 -7 -7 -8 -8 -9 -9 -9 -9 -9 -10 -11 -12 -12 -13 -13 -13 -14 -15 -15 -16 -16 -16 -16 -17 -17
13 12 12 12 12 12 12 12 11 11 11 11 12 12 12 11 11 10 9 8 8 7 7 6 4 4 4 5 5 4 4 5 6 6 5 4 4 5 5 5 4 3 3 2 1 1 1 0 -1 -2 -2 -3 -3 -3 -3 -3 -4 -4 -4 -5 -6 -7 -7 -8 -8 -9 -10 -10 -10 -10 -11 -12 -12 -13 -13 -14 -14 -14 -15 -16 -16 -16 -17 -17 -17 -17 -18
13 12 12 13 12 12 12 11 11 11 12 11 12 12 11 11 11 10 9 8 7 6 6 5 4 3 3 4 4 4 3 3 4 5 5 4 5 5 5 5 4 4 3 2 2 2 1 -0 -2 -2 -2 -3 -3 -3 -3 -4 -4 -4 -5 -6 -7 -7 -8 -8 -9 -9 -10 -10 -10 -10 -11 -12 -13 -14 -14 -14 -15 -15 -16 -16 -17 -17 -17 -17 -18 -18 -19
13 12 13 13 12 11 11 11 12 12 12 11 11 11 11 10 9 9 9 8 7 5 4 4 3 3 2 2 3 3 2 3 3 3 3 4 4 4 5 5 4 4 3 3 2 1 1 0 -1 -1 -1 -2 -3 -4 -4 -4 -4 -4 -5 -6 -7 -8 -8 -9 -9 -9 -10 -10 -10 -11 -12 -13 -14 -14 -14 -15 -16 -16 -17 -17 -17 -18 -18 -18 -18 -19 -19
13 13 13 13 12 12 11 11 11 11 11 12 11 10 10 9 8 6 7 9 7 4 3 3 3 3 2 2 2 2 2 2 2 1 2 3 3 3 4 4 4 4 4 2 1 1 1 1 -0 -1 -1 -3 -4 -4 -4 -5 -5 -5 -5 -7 -8 -8 -9 -10 -10 -10 -10 -11 -11 -12 -13 -14 -14 -15 -15 -16 -16 -17 -17 -18 -18 -18 -19 -19 -19 -19 -20
13 13 13 13 12 12 12 12 11 11 11 12 12 10 8 8 8 7 7 7 5 3 2 2 3 2 2 1 1 1 1 1 1 1 2 3 3 3 4 4 4 4 4 1 -0 1 1 1 0 -1 -2 -3 -4 -4 -5 -5 -5 -5 -6 -7 -8 -9 -10 -10 -10 -10 -11 -11 -12 -13 -14 -14 -15 -16 -16 -16 -17 -17 -18 -18 -19 -19 -19 -19 -19 -20 -20
13 13 13 13 12 12 12 12 11 10 10 11 11 11 10 8 7 7 6 4 3 2 2 2 2 2 2 1 1 1 1 1 0 1 2 3 2 3 4 4 4 3 2 -0 0 1 2 1 -0 -2 -3 -4 -4 -5 -5 -5 -6 -6 -7 -8 -9 -9 -10 -11 -11 -11 -11 -12 -13 -14 -15 -15 -16 -16 -16 -17 -17 -18 -18 -19 -19 -19 -19 -19 -20 -20 -21
13 13 12 13 12 12 13 12 11 11 11 10 9 10 10 9 7 7 6 4 2 2 1 1 0 1 1 1 1 1 1 1 1 2 2 2 2 3 4 4 2 1 0 0 1 1 1 -0 -1 -2 -4 -4 -4 -5 -6 -6 -6 -7 -8 -9 -9 -10 -11 -11 -11 -11 -12 -13 -14 -15 -15 -16 -16 -17 -17 -17 -18 -18 -19 -19 -19 -19 -20 -20 -21 -21 -21
14 13 14 14 13 11 12 13 11 10 10 8 7 8 8 7 7 7 4 1 0 1 1 -0 -1 -1 -0 1 1 1 1 1 2 2 1 1 3 4 3 2 1 0 1 1 1 1 1 -0 -2 -4 -4 -4 -5 -6 -6 -6 -7 -8 -9 -10 -10 -11 -11 -11 -11 -12 -13 -14 -15 -15 -16 -16 -17 -17 -18 -18 -18 -19 -19 -19 -20 -20 -20 -21 -21 -22 -22
12 11 13 15 13 10 10 12 11 9 8 6 5 5 6 5 5 3 0 -2 -1 0 -0 -2 -3 -2 -0 2 2 2 1 1 2 1 -0 1 3 3 1 0 1 1 2 2 2 2 1 -0 -3 -4 -5 -5 -6 -6 -7 -7 -7 -9 -10 -10 -11 -11 -12 -11 -12 -13 -14 -15 -16 -16 -16 -17 -17 -18 -18 -19 -19 -19 -20 -20 -20 -20 -21 -21 -22 -22 -22
12 10 12 15 13 10 9 10 8 6 5 4 3 2 2 1 1 -0 -2 -3 -2 -2 -3 -3 -3 -2 -1 0 2 2 1 1 2 1 0 1 3 2 0 1 2 2 2 3 3 2 0 -2 -4 -5 -6 -6 -7 -7 -7 -7 -8 -9 -11 -11 -11 -12 -12 -12 -12 -13 -14 -15 -16 -17 -17 -18 -18 -19 -19 -19 -20 -20 -20 -20 -20 -21 -21 -21 -22 -22 -22
12 10 12 14 12 9 8 7 5 3 2 2 1 -1 -1 -1 0 -0 -3 -5 -4 -3 -3 -3 -2 -1 -0 0 1 2 2 2 2 2 0 1 2 3 3 4 3 1 1 1 2 0 -1 -3 -5 -6 -6 -7 -8 -8 -8 -8 -9 -10 -11 -12 -12 -12 -12 -12 -13 -14 -15 -16 -17 -17 -18 -18 -19 -19 -20 -20 -20 -20 -20 -20 -21 -21 -21 -22 -22 -22 -22
9 9 10 9 7 5 4 4 4 4 3 1 -0 -1 -1 0 1 -1 -4 -5 -4 -4 -4 -4 -2 0 2 1 2 2 2 2 2 2 1 2 3 3 2 3 4 3 1 0 -0 -1 -3 -5 -6 -7 -7 -8 -9 -9 -9 -9 -10 -12 -12 -12 -12 -13 -13 -13 -14 -15 -16 -17 -17 -18 -18 -19 -20 -20 -20 -20 -20 -21 -21 -21 -21 -21 -21 -22 -22 -22 -22
7 8 7 5 6 6 4 3 5 7 4 2 2 1 1 2 1 -2 -4 -4 -4 -5 -4 -4 -2 -0 1 2 3 4 2 0 -0 2 3 3 2 0 1 3 4 3 1 -1 -2 -3 -4 -6 -6 -7 -8 -9 -9 -9 -9 -10 -11 -13 -13 -13 -13 -14 -14 -14 -15 -16 -17 -18 -18 -19 -19 -20 -20 -20 -20 -21 -21 -21 -21 -21 -21 -21 -21 -22 -22 -22 -22
7 6 4 3 4 6 5 5 7 7 5 4 3 1 0 1 0 -2 -5 -5 -4 -3 -0 1 -0 0 2 4 4 4 2 -1 -1 1 3 1 -1 -0 2 4 3 1 -1 -2 -3 -4 -5 -6 -7 -8 -9 -9 -9 -9 -10 -11 -12 -13 -13 -13 -14 -15 -15 -15 -16 -17 -17 -18 -18 -19 -20 -20 -20 -20 -21 -21 -21 -21 -21 -21 -21 -21 -22 -22 -22 -22 -22
8 7 4 1 0 1 3 4 5 4 3 2 1 -0 -1 -0 -1 -4 -6 -5 -3 -0 2 1 0 2 5 4 2 1 2 1 1 3 3 0 -1 -0 2 2 -0 -2 -2 -3 -4 -5 -6 -7 -8 -9 -10 -10 -10 -11 -11 -12 -13 -13 -14 -14 -15 -15 -15 -16 -17 -18 -18 -18 -19 -19 -20 -20 -20 -20 -21 -21 -21 -21 -21 -21 -21 -22 -22 -22 -22 -22 -22
Height
845 844 844 842 841 839 837 837 835 832 830 828 827 826 825 826 826 823 821 821 819 821 826 829 828 833 841 844 845 847 846 845 845 847 846 846 845 845 843 841 841 841 840 839 836 836 833 827 826 828 828 839 854 859 860 857 853 848 838 834 841 839 832 831 825 814 818 829 830 827 828 823 819 822 824 825 828 830 834 836 839 843 839 832 837 836 819
846 845 844 842 841 840 838 837 835 833 832 830 829 827 827 828 826 823 823 821 819 823 830 831 830 835 842 843 843 847 847 846 846 845 845 846 845 844 842 842 843 842 842 842 839 837 836 830 830 833 830 842 860 862 860 859 852 849 847 843 845 838 826 829 829 820 819 823 822 823 825 821 819 823 831 836 836 837 838 837 841 844 835 829 838 835 818
846 845 844 842 841 840 839 837 836 834 833 832 831 830 829 829 827 825 824 822 822 827 833 834 832 834 838 840 841 843 846 849 849 847 847 848 847 846 845 845 846 844 842 843 840 838 838 835 836 838 835 844 861 862 860 860 855 855 858 856 853 841 828 830 834 832 829 825 822 825 825 824 822 825 836 841 839 840 841 842 847 848 839 837 841 834 823
845 844 843 842 841 840 838 837 836 835 834 833 832 832 831 830 830 829 826 824 826 832 835 834 833 835 837 838 840 840 841 847 852 850 848 849 849 847 847 846 845 843 842 842 838 835 838 838 839 841 838 843 856 860 860 860 859 859 860 858 854 844 834 834 833 832 833 829 826 826 827 830 829 830 837 841 843 846 845 847 851 851 852 851 841 835 835
845 844 843 842 841 839 838 837 836 836 835 834 833 832 832 832 834 835 833 830 831 834 837 836 836 837 838 839 840 840 838 841 848 850 849 850 850 848 846 846 845 842 842 842 838 834 836 839 841 844 844 844 851 860 862 859 859 860 858 856 854 845 839 840 838 834 833 832 830 828 829 832 832 834 839 841 846 849 849 853 852 851 859 855 838 837 843
845 844 843 842 840 839 838 837 837 836 835 835 834 833 833 834 837 839 839 838 837 836 838 840 839 838 839 841 841 840 838 839 842 846 849 850 850 847 844 844 844 842 842 844 841 836 835 838 841 845 847 846 847 852 857 858 859 859 855 854 854 849 844 846 845 841 838 836 833 831 831 831 833 839 841 842 846 849 850 854 850 849 858 855 842 842 845
845 844 842 841 840 839 838 838 837 836 836 836 835 834 835 836 838 840 841 840 840 841 843 844 842 839 839 840 841 840 839 840 841 843 845 847 848 847 843 843 844 842 843 844 843 841 839 839 843 847 849 848 845 844 849 855 857 856 853 854 856 852 846 846 848 845 839 834 831 829 830 832 838 846 846 845 847 848 850 853 850 850 853 850 846 845 843
845 843 842 841 840 839 839 838 837 837 836 836 835 836 837 837 837 839 840 840 842 844 845 844 841 838 838 839 841 841 840 842 844 844 844 844 846 847 845 845 845 843 844 845 843 846 847 845 848 852 851 850 848 845 848 852 853 853 853 855 856 852 845 842 844 842 835 830 828 828 830 836 846 853 853 851 852 853 855 855 854 855 855 850 847 847 847
844 843 842 841 840 839 838 838 837 837 836 836 836 837 837 837 837 838 838 839 842 842 842 841 838 837 839 841 842 843 843 846 847 846 849 849 847 849 849 848 847 844 843 844 846 851 855 853 853 855 855 853 852 851 852 853 853 852 854 855 856 854 849 843 842 842 835 828 825 829 836 845 853 861 861 857 858 861 862 860 858 857 855 853 855 858 861
844 843 842 841 840 839 838 838 837 837 837 836 837 837 837 838 837 837 838 839 840 841 838 837 837 840 844 846 845 845 846 848 847 845 849 853 852 852 851 851 850 845 842 846 853 858 859 857 857 857 856 855 854 854 855 855 855 853 854 857 856 855 855 849 845 845 837 826 825 832 840 849 859 867 867 863 863 866 866 863 859 857 858 864 870 872 871
844 843 842 841 840 839 838 838 837 837 837 837 838 838 838 838 837 837 838 838 841 843 839 836 839 843 847 848 848 847 846 848 848 846 847 851 854 855 854 853 851 847 848 855 860 861 860 859 859 857 857 856 855 855 855 856 857 856 855 857 856 856 858 851 846 849 843 831 831 834 837 849 865 870 866 864 865 870 871 867 862 862 868 873 875 873 870
844 843 842 841 840 839 838 838 837 837 837 837 838 838 838 839 838 838 838 838 840 841 840 843 848 848 848 850 850 848 849 850 852 851 850 850 853 854 855 854 851 851 857 861 860 860 860 859 859 857 856 856 856 856 857 857 858 857 856 858 857 856 856 850 846 849 845 837 838 840 842 855 868 868 865 865 866 868 869 866 865 871 876 876 875 874 873
844 843 842 841 840 839 838 838 837 837 837 838 838 838 839 839 838 838 839 839 840 840 841 848 854 853 850 851 850 849 852 854 854 855 854 853 853 855 856 857 855 857 861 861 860 861 858 855 856 858 858 859 858 858 860 860 860 859 857 858 858 857 856 853 847 845 845 846 848 851 856 862 865 865 866 868 867 868 869 867 871 879 880 878 879 877 874
844 844 842 841 840 839 839 838 838 837 838 838 839 839 839 839 839 839 839 839 841 845 846 846 850 852 850 850 850 850 852 854 855 855 856 856 855 856 858 860 860 860 861 860 860 858 851 845 844 846 854 858 855 856 862 863 861 861 860 858 858 858 856 856 851 846 849 856 855 852 855 864 871 874 874 875 875 876 878 876 875 879 881 878 879 877 873
845 844 843 842 841 840 839 839 838 838 839 839 840 840 840 840 840 839 840 840 841 845 848 848 851 853 851 849 850 848 847 848 849 851 856 859 859 858 860 860 860 861 861 859 857 851 844 840 836 833 840 843 838 844 859 864 862 862 861 858 858 857 856 858 858 850 849 859 863 856 852 865 882 886 879 879 879 877 879 878 873 876 880 877 875 877 875
846 845 844 843 842 841 840 840 839 840 840 840 841 841 840 841 841 840 840 840 838 843 853 860 863 861 854 850 850 849 847 846 845 846 850 854 857 858 860 860 859 860 861 858 854 848 842 841 837 832 833 834 832 838 848 854 857 860 860 858 857 856 855 856 859 856 854 863 870 864 860 873 889 888 879 879 879 875 874 872 868 874 880 878 877 879 876
848 847 846 845 844 843 842 842 841 841 842 841 841 842 841 842 842 841 840 841 843 852 863 868 867 862 855 850 850 851 851 850 848 846 845 849 855 857 859 861 860 860 860 855 848 843 839 837 835 833 834 836 838 840 840 845 854 860 860 859 858 860 860 858 862 865 864 867 869 863 869 885 891 885 882 881 876 872 873 872 870 875 880 881 882 882 878
849 848 848 846 846 845 844 844 844 843 843 843 842 842 843 843 842 842 842 841 846 858 869 871 867 863 861 859 857 856 855 854 852 849 846 847 852 855 857 859 856 857 859 853 845 841 839 837 838 841 840 839 842 845 847 854 863 866 865 863 866 874 873 866 870 876 874 873 872 865 874 892 894 885 883 879 870 870 879 885 884 883 882 882 884 885 882
851 850 849 848 848 847 846 846 845 844 844 844 843 843 844 844 843 843 843 843 847 858 870 872 870 869 869 869 865 861 859 857 856 853 847 846 852 856 857 856 854 854 854 850 845 843 841 840 842 846 844 842 846 853 861 871 876 875 874 876 882 891 888 874 876 884 880 876 875 871 876 891 895 887 881 879 881 887 893 893 891 890 887 885 886 888 888
852 851 851 850 849 849 848 847 846 846 845 845 845 844 845 845 845 844 844 846 852 863 873 874 872 873 873 871 869 866 863 861 860 857 852 851 856 856 852 850 852 853 851 849 847 844 844 845 846 847 849 849 849 856 871 882 884 881 883 888 893 898 897 887 884 889 890 884 881 882 888 893 893 889 886 888 896 902 899 894 891 892 891 891 891 891 890
854 853 852 851 851 850 849 848 847 847 846 846 846 846 846 846 846 846 845 846 851 861 872 875 874 875 875 874 875 874 872 870 869 868 865 861 858 855 851 851 854 855 855 855 852 848 848 851 849 849 851 851 850 860 873 882 886 886 885 889 896 898 901 902 897 894 899 898 890 891 899 899 895 896 897 897 900 901 898 895 893 893 894 894 893 892 892
855 854 854 853 852 851 850 849 849 848 847 847 846 847 848 848 848 848 847 848 853 862 872 875 875 875 876 876 876 876 876 876 876 876 875 869 861 856 856 857 858 861 861 860 858 853 852 854 854 853 856 858 862 869 876 879 886 891 888 890 900 902 903 907 904 897 900 901 894 894 900 900 898 899 900 899 900 899 899 899 898 897 897 897 895 893 892
856 855 855 854 853 852 851 850 850 849 848 848 848 848 848 849 850 850 848 850 858 868 873 875 874 876 877 877 877 877 877 877 877 877 878 874 865 859 860 862 863 865 864 864 866 863 858 858 858 857 864 872 874 874 879 885 891 895 896 898 902 903 903 903 901 900 901 897 894 899 903 900 900 901 900 900 901 900 900 902 901 901 900 898 896 896 894
857 856 856 855 854 853 852 851 851 850 850 849 849 849 849 850 850 851 850 852 858 865 871 874 875 877 878 878 877 877 877 877 877 876 877 877 871 864 865 869 870 868 866 868 870 867 863 862 861 861 870 880 879 876 884 894 896 896 902 907 905 902 905 904 902 907 910 900 894 902 907 904 903 902 901 902 904 903 902 903 903 903 902 899 898 897 895
858 857 857 856 855 854 853 852 852 851 851 851 850 850 851 851 851 851 851 852 854 856 863 872 877 879 879 879 878 878 877 876 877 877 876 878 876 872 871 873 874 872 870 870 869 867 864 863 864 866 874 881 882 884 890 897 899 900 907 916 914 907 907 909 909 913 912 902 898 904 908 905 904 904 904 905 904 903 903 903 902 902 901 900 899 897 896
858 858 857 857 856 855 854 854 853 852 852 852 852 851 852 852 852 852 851 852 852 852 859 871 878 879 879 879 878 879 878 876 877 877 877 877 877 877 876 875 874 873 872 870 868 866 866 868 871 876 881 883 886 892 897 901 904 907 912 918 918 913 912 915 916 915 911 905 903 906 906 904 903 904 906 906 905 904 904 904 903 901 901 900 899 898 897
859 859 858 857 857 856 855 854 853 853 853 852 852 852 852 852 852 852 851 852 851 851 858 870 878 879 879 880 880 879 878 877 877 877 877 877 876 877 877 876 874 873 871 869 869 868 870 877 883 886 889 889 890 895 901 903 907 913 918 919 917 917 919 920 919 919 917 912 910 912 912 908 905 905 906 906 905 905 905 904 903 902 901 900 898 897 897
860 859 859 858 858 857 856 855 854 853 853 853 853 853 853 853 853 852 852 852 852 852 860 870 876 877 878 879 880 879 878 878 878 877 878 878 877 877 877 875 874 874 871 870 872 874 877 883 888 889 889 891 894 899 902 903 908 917 922 921 919 922 923 922 922 923 920 914 913 916 916 913 908 906 907 906 905 906 906 904 903 902 902 901 899 896 893
860 860 859 859 858 857 856 855 854 854 854 854 854 854 854 854 854 853 853 853 853 855 862 870 874 877 879 880 880 881 879 878 878 878 878 878 877 877 877 875 874 874 873 873 876 881 884 887 890 892 892 892 895 900 902 905 914 924 925 922 922 923 922 921 922 922 918 915 916 917 916 914 911 909 908 907 907 907 906 904 904 903 902 901 900 898 895
861 860 860 859 859 858 857 856 855 854 854 854 854 854 854 855 855 855 855 855 855 856 860 866 872 878 881 881 881 881 880 879 879 879 878 878 878 877 876 876 875 874 874 875 878 881 886 888 890 894 895 892 894 900 904 907 916 923 924 923 923 922 921 921 921 920 918 917 917 916 916 914 912 910 909 909 908 908 907 906 905 903 902 901 900 898 896
861 860 860 860 859 859 858 857 856 855 854 854 854 854 854 855 856 857 857 856 857 857 859 866 874 879 881 882 882 881 881 880 880 879 879 879 878 878 877 877 877 876 877 879 881 883 888 892 894 897 897 895 896 904 910 913 918 922 923 923 922 921 921 921 920 920 920 918 917 916 916 914 911 911 910 910 910 909 908 907 905 903 902 901 899 898 896
861 861 861 860 860 860 860 859 858 857 855 855 855 856 856 857 857 858 857 857 858 857 858 865 872 875 877 880 882 881 881 881 880 880 880 879 878 879 878 878 878 879 879 881 884 888 892 896 898 900 900 898 900 907 915 921 925 926 924 922 922 921 921 921 921 920 920 919 918 917 915 913 912 912 911 910 910 910 909 907 906 904 902 900 899 898 896
861 861 861 860 861 861 861 860 860 859 858 857 857 858 858 858 858 858 858 858 858 857 858 862 866 869 874 879 882 881 881 881 880 879 880 880 879 879 879 879 879 880 881 883 886 890 894 896 898 901 902 901 903 910 919 925 926 925 923 922 922 921 921 921 921 920 920 920 920 919 916 914 913 912 912 911 911 910 909 906 905 903 901 900 898 896 895
861 861 861 861 861 861 861 861 861 861 860 860 860 860 860 859 859 859 859 859 859 859 861 864 866 870 874 878 880 881 881 880 879 879 880 881 880 880 879 879 879 881 884 886 888 891 894 896 899 903 906 906 907 913 921 924 924 923 923 923 922 921 922 921 921 921 920 920 920 919 917 914 913 913 912 912 911 910 909 907 904 902 900 899 897 896 894
861 861 861 861 861 862 862 862 862 862 862 862 863 863 863 862 861 860 860 859 860 862 866 869 872 877 880 878 877 881 883 882 881 882 882 881 881 881 880 880 882 886 888 888 890 894 897 898 900 904 909 912 916 920 923 924 923 923 923 923 922 922 923 922 921 921 920 920 919 917 916 915 915 914 913 912 911 909 908 906 905 903 901 899 897 896 894
861 861 862 862 862 862 863 863 863 863 863 863 864 864 864 864 864 863 862 862 862 866 871 875 881 887 889 884 881 883 884 882 881 882 882 882 882 882 880 880 886 890 890 890 894 899 900 899 902 908 913 917 921 923 923 923 924 924 923 923 923 923 923 923 922 921 920 919 918 916 915 915 915 914 914 913 911 909 907 906 905 903 901 900 897 896 895
861 862 862 862 863 863 863 864 864 864 864 865 866 865 865 865 864 864 864 865 867 870 874 880 888 894 894 890 888 886 885 883 882 882 884 884 884 883 881 883 887 891 892 894 899 902 901 901 906 912 916 919 921 922 922 923 924 924 923 922 923 923 923 923 922 921 919 918 916 915 915 916 915 915 914 912 910 909 908 906 905 903 901 899 897 896 895
862 863 863 863 863 864 864 864 865 865 865 866 865 865 865 865 865 867 870 872 874 876 880 886 893 896 894 892 891 889 888 887 884 882 884 887 886 883 882 885 889 891 895 899 902 902 903 907 912 916 919 920 920 921 922 923 923 923 922 923 923 923 923 923 922 921 920 918 916 916 915 915 914 914 913 911 910 909 908 907 905 904 902 900 898 896 894
863 863 863 863 864 865 865 866 866 866 866 866 866 866 868 867 867 871 875 877 881 884 887 891 897 898 897 896 894 893 893 893 889 886 887 888 886 884 884 887 889 891 894 899 901 901 904 909 914 916 918 919 921 922 922 922 923 922 922 922 923 924 924 923 922 922 921 920 918 918 917 917 916 914 912 911 909 909 908 907 905 904 902 900 898 896 893
864 864 864 865 866 866 866 866 866 866 867 867 866 867 870 872 875 879 880 880 887 894 895 896 899 900 900 900 899 897 896 896 894 894 893 891 889 889 888 888 890 892 894 898 902 902 903 907 911 912 913 916 919 922 922 922 922 922 922 922 923 923 923 923 923 922 921 920 919 919 919 919 918 916 914 912 911 909 908 906 905 903 902 900 898 895 893
864 864 864 865 866 866 867 867 867 867 867 867 868 873 877 878 883 888 886 884 891 900 902 901 901 900 901 902 902 900 899 898 898 899 898 894 892 891 890 890 892 892 894 900 905 904 903 905 908 910 912 916 920 921 922 922 922 921 921 922 922 923 923 923 922 922 921 920 920 920 919 919 918 917 915 914 912 910 909 907 905 903 902 899 897 895 893
864 865 865 866 867 867 867 867 867 868 868 868 870 879 886 886 887 890 892 893 899 905 905 903 904 903 903 904 903 902 901 900 900 899 898 895 893 893 893 892 891 890 894 904 908 905 903 905 907 910 915 918 920 921 921 921 921 921 921 921 922 922 922 922 922 921 921 920 920 920 920 919 917 916 915 914 912 911 909 907 905 903 901 899 897 895 893
865 866 866 866 867 867 868 869 871 873 877 877 876 878 885 890 893 895 898 902 907 908 907 906 906 905 903 903 904 903 902 901 901 900 899 897 897 896 893 892 892 895 902 908 907 902 901 904 907 912 917 919 919 921 921 921 920 920 920 921 921 921 921 921 921 920 920 920 920 919 919 918 917 916 914 913 912 910 908 907 905 903 901 899 896 894 892
867 867 867 868 869 869 868 871 874 875 880 888 890 886 887 893 896 897 899 904 909 910 910 911 911 909 906 904 904 903 902 902 901 899 899 900 899 896 893 895 900 905 907 907 905 904 906 908 910 914 917 918 919 920 920 920 919 920 920 921 921 921 921 921 920 919 919 919 919 919 918 917 916 915 913 912 910 909 907 905 904 902 900 898 896 894 892
867 868 867 867 871 873 872 875 880 883 888 896 901 899 897 899 900 901 905 911 913 912 911 913 915 914 910 906 904 904 905 903 899 899 904 904 898 895 898 904 908 908 907 905 905 905 905 908 912 916 918 919 919 920 920 919 919 920 920 921 921 921 920 920 919 919 919 919 918 918 917 916 915 914 912 911 909 908 906 904 902 901 899 897 895 893 891
868 871 869 868 874 881 882 881 886 892 898 904 906 905 905 907 907 909 914 916 916 914 914 915 917 915 910 905 903 904 905 903 901 905 909 904 897 900 907 909 907 905 902 900 900 901 902 907 914 918 919 919 920 920 919 919 919 919 920 921 920 920 920 919 919 919 919 918 918 917 916 915 914 913 911 909 908 907 905 903 901 900 897 895 893 891 889
870 874 872 870 877 888 890 891 896 902 906 909 911 912 912 913 913 915 917 917 917 917 916 917 916 914 911 908 905 903 905 905 904 906 908 904 901 906 909 905 904 906 903 896 895 900 906 912 917 919 919 920 921 920 919 919 919 919 920 921 920 920 920 919 918 918 918 918 917 916 915 914 914 912 911 909 907 905 904 902 900 898 896 894 892 890 887
873 875 873 876 886 894 896 900 907 911 911 912 914 915 916 915 914 915 917 918 918 917 916 916 914 912 910 909 906 904 904 903 901 904 909 907 903 902 901 897 900 908 909 903 901 905 910 915 919 920 919 920 920 919 919 919 919 920 920 920 920 920 919 918 918 918 918 917 916 915 914 914 913 911 910 908 906 904 903 901 899 897 895 893 891 889 886
876 879 882 890 899 904 906 907 908 908 910 913 915 915 915 913 913 915 918 919 918 917 917 918 915 909 906 906 905 904 904 904 904 906 908 905 901 904 905 900 897 900 905 907 908 910 913 917 919 919 919 920 920 919 919 919 919 920 921 920 920 920 919 918 918 918 917 917 916 914 913 913 912 910 910 908 906 904 902 901 898 896 894 892 890 887 884
881 886 894 899 899 900 906 908 904 903 907 911 912 912 913 912 913 916 918 918 917 918 917 916 914 911 908 906 902 901 906 912 913 907 900 900 908 915 912 902 895 897 904 909 912 913 915 918 919 918 919 920 919 918 919 919 919 920 920 919 919 920 919 918 918 917 916 916 915 913 912 912 911 910 909 908 906 903 901 899 898 896 893 891 889 887 884
887 892 902 906 902 900 904 904 900 900 905 908 909 912 914 913 913 916 917 917 917 915 911 910 912 911 906 900 898 900 906 915 917 910 903 908 917 916 903 894 897 904 909 912 914 915 916 917 918 918 919 919 918 918 919 919 919 919 919 919 919 919 918 917 917 917 915 914 914 912 911 911 910 909 908 906 905 903 900 898 897 895 893 890 888 886 884
892 895 904 910 910 908 908 906 904 906 909 910 911 914 915 914 914 917 917 917 915 912 909 910 912 907 900 900 906 910 909 909 909 905 903 909 915 910 901 899 906 910 911 912 915 916 916 917 918 918 918 918 918 918 918 918 918 919 919 918 918 918 917 916 916 915 914 913 912 911 911 910 909 908 907 905 903 902 900 897 895 894 893 890 888 886 884
Wind_Speed
13 14 15 16 16 16 17 17 17 17 17 15 14 9 2 1 2 2 9 12 5 1 1 1 1 2 1 1 1 1 1 0 0 1 1 0 0 0 0 1 1 1 2 2 3 3 2 2 2 2 2 2 1 2 4 4 2 1 1 2 2 2 1 2 4 4 1 2 1 1 2 2 3 2 3 3 2 2 1 3 1 1 2 2 3 3 2
12 13 15 16 16 16 15 15 14 15 16 17 14 5 0 2 2 1 9 12 5 1 1 2 2 2 1 2 1 1 1 1 0 0 1 1 1 1 1 2 2 2 2 1 3 2 1 1 3 1 2 1 0 2 3 4 2 2 1 1 2 2 0 1 3 4 2 2 1 2 2 3 3 2 4 4 3 4 1 2 1 1 3 2 3 4 1
13 14 15 15 15 14 13 13 13 12 14 15 11 3 2 2 1 1 5 9 7 2 0 2 1 1 1 0 0 0 0 2 2 1 2 1 1 1 1 1 1 2 1 1 3 1 1 1 1 1 2 1 1 1 2 3 2 2 1 3 2 1 1 2 2 3 3 3 2 2 3 3 2 2 4 4 4 4 1 2 1 1 3 4 3 5 4
14 14 15 15 14 13 12 12 12 11 11 13 9 4 2 1 1 1 1 5 6 2 0 2 2 0 1 0 0 1 0 2 0 1 1 1 1 1 1 1 1 1 1 2 4 2 3 1 1 2 2 1 1 1 1 1 1 2 3 3 1 1 2 2 2 4 4 4 5 4 5 5 4 3 4 2 2 4 2 1 1 2 5 4 3 6 11
14 14 15 14 13 13 12 11 11 10 10 11 9 3 0 1 1 1 1 2 3 2 2 4 2 0 1 0 1 2 2 1 1 1 1 1 1 1 1 1 1 1 2 2 3 1 2 2 1 1 2 1 1 1 1 0 0 1 3 1 0 2 3 1 2 4 5 6 9 8 6 5 4 5 5 2 4 4 2 1 3 4 4 3 4 10 13
14 14 14 14 12 12 11 10 10 9 8 9 7 2 1 1 1 0 0 0 1 1 2 4 2 0 1 0 1 2 2 2 1 1 0 1 1 0 0 1 1 2 3 2 2 4 2 1 1 0 1 1 0 1 0 0 2 1 1 1 1 1 2 1 2 4 7 9 11 9 5 3 3 6 6 5 4 3 3 1 4 4 3 6 8 12 12
13 13 13 12 12 11 11 10 9 8 7 7 5 2 1 1 1 1 0 0 1 0 1 2 2 1 0 1 2 2 3 3 1 0 0 1 1 0 1 2 2 3 3 1 2 3 3 1 1 1 1 2 2 0 2 1 2 2 1 1 1 1 1 0 1 5 8 8 7 5 2 2 6 7 7 7 6 4 4 2 5 7 5 7 11 13 10
12 12 12 12 12 11 10 10 8 7 7 4 2 2 1 0 1 1 1 0 1 1 1 2 2 2 0 1 1 2 3 4 1 1 2 1 1 1 2 3 4 3 1 2 2 2 2 1 2 1 1 2 2 1 2 1 1 1 1 1 1 1 0 1 1 4 5 2 1 1 3 5 7 7 8 8 7 8 7 6 7 7 7 8 11 12 7
12 12 12 12 12 12 11 10 8 7 5 2 1 1 1 1 0 1 1 1 1 1 1 2 1 1 1 2 2 2 3 3 2 1 3 2 2 2 3 4 4 2 3 2 1 3 3 2 2 3 2 2 2 1 2 3 2 1 1 1 1 1 2 3 2 3 3 1 1 1 6 9 8 8 9 8 6 7 6 5 6 7 9 10 9 6 5
13 13 13 13 13 12 11 10 8 6 3 2 2 1 1 1 1 1 1 1 0 1 1 1 1 1 1 2 2 1 2 2 2 1 2 2 2 1 2 3 4 3 2 0 2 2 3 3 3 4 3 3 2 1 2 3 2 1 0 0 0 1 2 3 2 3 3 3 6 4 5 6 4 5 6 6 6 7 7 7 7 7 7 6 4 4 6
13 14 14 13 13 11 10 9 7 5 2 1 2 2 1 1 2 1 1 1 0 2 2 2 2 1 0 2 2 1 1 2 2 2 0 1 2 0 2 2 2 2 1 1 1 2 3 3 3 4 3 2 2 2 2 3 3 2 1 0 1 0 2 3 1 1 4 6 9 6 0 1 1 3 5 5 6 8 9 8 7 7 7 5 5 6 10
13 14 13 13 12 10 9 8 6 4 2 2 1 2 2 2 2 2 1 1 1 1 1 2 2 1 1 2 1 1 2 1 1 1 1 1 1 0 2 2 2 1 1 2 2 2 2 2 2 2 1 2 3 3 4 4 3 2 2 1 1 1 2 3 1 1 3 6 6 4 2 1 4 5 7 6 5 8 11 8 5 8 9 9 9 10 12
13 13 12 12 11 9 8 7 5 3 1 3 2 2 2 1 2 1 1 1 1 2 2 1 1 1 0 1 1 1 2 1 0 1 1 1 0 1 2 2 1 0 2 3 2 2 2 1 2 2 2 2 3 4 5 5 4 3 2 1 1 2 2 2 1 1 2 3 4 3 1 2 3 6 10 9 7 11 15 11 7 8 9 10 10 11 12
12 12 12 11 10 9 8 7 5 3 2 3 2 2 1 2 3 1 1 1 1 2 1 2 1 1 1 1 1 0 2 2 1 1 0 1 1 2 2 1 0 0 2 3 2 2 2 1 2 1 2 2 1 1 2 2 3 3 3 2 2 2 2 2 1 1 1 2 4 2 3 3 6 7 8 8 7 8 11 10 4 6 9 10 11 13 16
11 12 12 11 11 10 9 8 6 5 4 4 3 3 2 2 3 2 1 1 1 1 1 1 1 4 3 1 1 2 1 2 1 1 1 1 1 2 3 1 1 0 2 2 2 2 1 1 2 2 0 0 1 0 2 1 1 1 2 3 2 2 2 1 1 1 3 2 4 2 2 1 4 6 6 6 6 8 10 9 3 5 11 13 15 17 18
11 12 12 12 12 12 11 10 8 7 5 4 3 3 2 2 4 3 2 1 1 1 1 3 3 4 3 1 1 1 1 2 1 1 1 1 1 2 2 2 1 1 2 1 2 2 1 1 2 2 1 0 1 1 1 1 1 1 2 3 2 2 2 1 0 2 3 3 2 3 2 1 4 7 8 6 7 11 11 6 3 5 13 16 17 18 18
11 12 12 12 12 12 12 11 10 8 6 4 3 4 3 3 4 4 2 1 2 2 2 4 3 3 2 1 1 1 1 2 2 1 0 1 2 2 1 2 2 2 2 1 2 2 1 1 2 2 1 1 0 2 1 1 1 2 2 2 3 5 4 2 3 3 4 4 2 2 0 2 6 9 8 8 10 11 8 5 4 9 14 14 14 17 17
11 12 13 13 13 12 12 11 10 9 7 5 5 5 5 4 4 4 2 1 2 3 2 5 3 1 1 1 1 2 2 1 1 1 1 1 2 1 0 1 2 2 1 1 2 2 2 2 1 1 2 0 0 1 2 3 2 3 4 3 4 4 4 3 5 4 5 4 3 2 1 2 8 10 8 12 12 6 3 5 7 12 16 14 13 15 15
11 12 13 13 13 13 12 11 10 9 7 6 5 5 6 5 4 4 3 2 2 2 2 4 4 4 4 3 3 2 1 0 1 2 1 0 0 0 1 1 1 0 1 1 1 1 1 1 1 1 2 1 2 1 3 3 2 3 4 3 4 4 3 3 4 4 4 3 3 3 1 3 10 11 8 11 10 3 3 7 8 11 15 14 13 13 13
11 12 13 13 14 13 13 12 10 9 8 7 6 6 7 6 5 6 4 4 4 4 4 5 5 6 6 4 2 2 2 1 1 3 3 2 1 1 2 2 1 1 1 1 1 1 1 2 1 1 1 2 1 2 3 4 3 4 3 2 3 2 2 3 4 3 2 3 3 3 1 4 13 13 8 8 6 3 6 9 9 9 12 12 12 12 12
10 12 13 13 13 13 12 12 11 10 8 7 7 8 9 9 8 7 5 6 6 3 2 3 5 5 6 6 6 4 3 3 2 2 2 3 2 1 1 2 2 2 2 1 2 1 1 1 2 1 0 1 2 2 2 3 3 5 4 2 2 2 1 2 3 2 2 2 3 3 2 4 10 11 7 6 6 6 8 10 10 9 9 10 10 11 12
10 11 12 13 13 12 12 11 11 10 9 7 7 8 9 11 11 8 6 11 13 8 5 5 7 7 7 7 6 5 5 4 3 2 1 3 3 1 1 2 2 2 2 1 2 1 1 2 2 1 2 2 3 3 2 2 1 3 4 3 2 2 3 1 3 2 3 3 3 4 4 5 8 8 6 7 9 10 10 9 9 8 9 9 10 11 13
9 10 12 13 12 12 11 11 10 10 9 8 7 8 10 13 13 11 11 16 16 10 7 7 6 6 7 6 6 5 4 3 3 2 1 2 2 1 1 3 2 1 1 2 1 2 2 3 1 1 3 2 1 2 3 4 2 2 4 4 1 3 6 4 3 3 5 3 1 6 7 9 11 9 7 9 11 10 9 8 7 8 9 10 10 10 12
7 9 11 13 12 12 12 11 9 9 8 7 7 9 12 12 10 8 8 10 8 4 3 3 2 2 3 3 4 4 3 4 3 2 1 1 2 1 2 3 3 2 2 3 1 2 1 2 1 1 3 1 2 2 3 3 3 2 3 3 1 4 7 5 3 5 5 3 4 9 9 11 12 9 7 9 10 9 8 6 6 8 10 12 12 13 14
5 7 10 11 11 12 12 11 9 7 7 6 6 7 8 6 5 4 4 3 2 2 3 3 1 2 3 3 4 4 5 4 3 2 1 1 2 1 2 4 4 2 2 4 4 2 1 1 1 3 2 1 2 3 2 2 2 3 3 3 2 4 5 5 5 5 5 5 5 10 11 10 8 6 7 9 10 10 10 11 11 12 14 17 18 18 17
4 5 8 9 10 11 12 11 9 7 6 5 5 4 3 2 4 3 1 1 1 1 3 3 1 2 3 4 4 4 5 4 3 2 2 1 2 2 4 6 5 4 5 5 3 2 2 3 3 4 3 2 2 3 3 3 4 3 4 3 3 5 4 4 6 6 5 5 8 13 12 7 3 6 8 9 9 9 11 14 16 15 16 18 20 20 19
4 5 7 8 8 10 12 11 9 7 5 5 6 5 4 4 4 3 2 1 0 1 3 3 1 1 3 5 6 6 5 4 3 3 2 2 1 0 3 6 5 4 4 3 1 2 3 4 3 3 2 2 3 3 3 4 4 4 4 3 3 4 4 5 5 5 4 6 9 12 11 7 6 10 12 11 10 11 11 13 15 14 15 16 17 18 19
5 5 6 7 8 10 11 11 10 6 4 6 8 8 9 8 7 5 2 2 2 3 3 3 3 4 3 3 8 10 8 6 5 4 4 4 4 3 4 7 5 2 3 3 2 3 4 4 2 1 1 1 2 2 2 3 4 3 3 4 4 4 4 6 5 5 7 9 10 10 9 9 10 12 12 10 13 13 12 13 15 15 17 19 17 16 16
5 6 6 7 8 9 10 10 9 6 2 4 5 6 7 10 10 8 7 8 9 8 5 3 4 3 1 2 6 8 8 8 8 6 6 5 5 5 5 6 5 3 2 2 4 4 3 3 3 2 1 1 0 1 1 2 3 3 3 5 5 3 4 5 6 8 9 10 9 8 8 9 11 12 10 12 15 15 13 15 17 17 18 20 20 17 16
6 6 6 7 7 9 10 10 9 6 2 3 1 1 3 5 8 9 10 10 9 7 4 2 3 2 1 1 2 4 5 6 6 6 6 7 7 7 7 5 5 5 3 3 4 3 3 3 3 2 3 4 2 2 1 2 3 3 4 5 4 4 4 4 5 7 8 8 8 9 9 9 11 11 10 13 17 17 15 17 20 20 20 21 20 19 18
7 6 6 6 6 8 10 11 10 9 5 3 1 1 1 1 3 3 4 4 4 4 4 3 3 2 1 1 2 3 3 3 3 4 5 5 5 7 8 5 5 7 5 3 3 3 3 2 3 2 3 5 4 3 2 2 2 2 4 5 4 4 4 4 4 6 8 8 9 10 9 8 9 9 9 12 17 19 18 19 21 21 21 22 20 19 19
6 6 5 5 6 8 10 13 15 15 14 12 8 4 2 1 2 2 2 2 3 4 3 3 2 1 1 1 1 3 2 1 0 1 3 4 3 4 5 5 4 6 6 3 2 3 3 2 2 2 3 4 3 3 3 3 2 2 5 6 5 4 4 4 5 6 8 10 10 9 8 7 8 9 11 14 17 19 19 19 20 21 21 21 19 17 18
5 5 4 4 5 6 8 10 13 15 18 19 17 14 9 6 3 3 3 3 3 3 2 2 2 1 1 2 1 4 4 1 1 1 2 4 3 2 2 2 3 4 7 5 2 2 2 2 3 3 2 3 2 3 3 3 1 3 5 6 5 4 4 5 6 6 7 10 10 8 8 9 11 14 15 16 18 20 20 20 21 21 20 18 17 17 18
4 4 3 4 5 5 5 5 6 10 13 15 16 18 18 15 10 5 3 2 3 5 4 3 1 1 1 1 1 4 4 1 1 2 1 3 3 2 0 1 2 2 5 4 2 3 2 2 3 2 2 3 3 2 3 2 3 4 5 5 5 4 4 5 5 5 7 10 10 10 11 12 14 15 15 16 17 19 19 19 20 19 15 13 15 17 19
3 3 3 4 5 6 5 4 4 6 8 8 8 11 17 20 20 17 11 6 3 3 3 3 2 2 2 1 0 3 4 2 1 2 1 1 2 1 0 1 2 2 2 2 2 3 2 1 1 2 2 2 2 2 2 2 4 4 5 5 4 4 5 5 5 6 8 11 12 12 11 12 13 11 11 13 17 18 17 17 18 16 12 11 15 17 18
2 3 4 6 7 7 5 4 3 2 2 4 6 8 11 13 16 19 20 17 12 6 2 2 3 2 3 2 1 4 5 2 1 1 0 1 1 1 1 1 2 1 1 1 3 3 2 1 1 2 2 1 1 2 2 2 4 5 6 5 4 4 4 6 7 8 9 11 11 10 9 10 11 9 9 11 15 16 15 15 15 14 11 11 14 17 18
3 4 6 7 6 4 3 3 3 1 2 5 6 5 5 5 5 9 13 15 14 11 6 3 3 2 1 1 2 5 6 2 1 1 1 1 1 1 1 1 1 0 0 2 2 1 2 3 2 2 2 1 3 3 2 3 3 4 4 3 3 3 4 6 8 8 8 9 9 8 8 9 9 8 8 10 12 12 12 12 13 13 13 14 16 17 19
5 6 5 4 2 2 2 2 2 3 5 5 2 1 4 3 3 4 5 5 7 8 6 4 3 3 2 1 2 5 5 2 2 2 1 0 1 1 1 1 1 1 1 2 1 0 2 3 2 2 1 2 4 4 2 2 2 3 3 3 4 5 6 8 9 8 7 8 8 9 10 10 10 9 9 10 11 12 12 13 15 16 16 17 19 19 20
5 4 3 2 2 1 0 1 3 5 4 1 2 2 3 3 2 2 2 2 2 3 3 3 3 3 3 2 3 4 4 2 2 2 2 1 1 1 1 0 0 0 1 1 0 1 2 1 0 1 2 3 4 3 2 2 3 4 3 5 6 7 7 8 8 7 7 8 9 9 10 11 11 11 11 11 13 14 14 15 16 17 17 19 20 20 20
3 2 2 1 1 2 3 3 3 2 1 2 3 2 2 3 2 1 1 2 3 2 2 2 1 1 2 1 2 3 5 3 1 1 2 2 0 1 1 1 0 1 1 0 1 0 1 0 1 1 1 3 4 3 3 3 3 4 4 6 6 7 7 7 9 9 8 8 8 9 11 13 14 13 13 13 14 14 15 16 17 18 19 21 21 20 21
0 1 1 3 4 5 6 5 3 1 1 2 3 3 2 2 1 0 1 3 3 1 1 1 2 2 1 1 2 2 4 4 1 0 1 1 0 1 1 1 1 1 1 1 1 0 0 0 1 0 1 3 4 3 3 3 4 4 4 6 7 7 7 7 9 9 8 7 6 8 11 15 16 14 13 14 15 15 16 17 18 20 21 20 20 21 21
4 5 7 8 7 6 5 4 5 4 2 1 2 2 1 1 1 1 2 2 1 1 0 1 2 2 2 1 1 1 1 3 2 0 1 1 1 1 1 0 1 1 0 1 1 0 0 1 1 1 2 4 3 2 2 3 4 4 4 6 8 8 7 8 9 8 6 6 6 8 12 15 15 14 14 15 16 17 18 18 20 21 20 19 20 22 21
9 8 7 5 3 3 3 4 3 3 2 2 3 2 2 2 1 1 1 0 0 1 1 2 2 3 2 1 1 2 1 1 1 0 1 1 1 1 1 1 1 0 1 1 1 0 1 2 1 1 2 4 3 2 2 4 4 3 5 7 8 8 8 9 9 7 7 7 8 11 13 14 13 14 15 16 17 18 19 20 20 20 19 19 20 22 22
5 3 2 2 2 3 3 2 2 3 3 2 2 2 2 3 1 1 2 1 1 1 1 1 3 3 2 1 1 0 1 1 0 1 1 1 0 1 2 1 0 1 0 1 1 1 2 2 0 2 3 2 2 2 3 4 4 3 4 7 8 8 8 10 9 7 8 9 10 13 14 12 12 14 16 17 17 18 20 20 19 18 17 18 19 21 22
0 1 3 3 3 3 2 2 2 3 3 1 1 1 1 1 2 2 1 1 2 2 1 2 2 2 3 2 0 1 0 1 0 1 1 1 1 1 1 0 1 0 1 0 1 1 1 1 1 3 3 2 2 3 4 5 4 4 4 6 8 9 10 10 9 7 8 10 12 14 13 12 12 14 16 17 17 18 19 20 19 18 18 19 19 20 22
2 1 2 3 2 2 1 2 2 1 1 1 1 2 2 1 1 1 0 1 2 3 2 1 1 2 3 2 0 1 0 1 1 0 0 1 1 0 0 0 1 1 1 1 2 2 1 1 2 3 2 2 3 3 4 5 4 5 4 5 7 9 10 10 8 8 9 11 14 15 12 11 11 13 15 18 18 18 19 20 20 20 21 21 20 21 24
3 1 2 3 2 2 1 2 1 1 1 1 2 2 2 1 1 1 1 1 2 2 2 1 1 2 2 1 0 0 0 1 1 0 0 1 0 1 1 1 1 0 0 1 3 3 1 2 2 2 2 2 2 3 4 4 3 5 5 7 8 9 10 9 8 8 10 12 15 14 11 10 11 13 14 18 20 20 19 20 22 22 22 22 22 24 25
2 1 2 3 1 1 1 1 1 1 2 2 1 1 1 0 0 1 1 1 1 2 2 2 1 1 1 1 0 1 1 1 1 1 0 1 1 1 2 2 1 1 2 3 3 2 1 2 1 1 1 2 2 3 3 3 4 5 6 8 8 9 9 9 9 9 10 13 14 13 11 10 12 13 14 17 20 21 20 21 23 24 23 22 23 25 25
6 3 3 2 1 1 1 1 1 1 2 2 1 1 1 1 0 2 1 1 1 1 1 1 1 1 1 0 1 0 1 1 1 1 1 2 1 0 0 0 2 3 2 3 2 1 2 2 2 1 1 1 2 3 4 3 4 5 6 8 7 8 9 10 8 9 11 13 13 12 11 11 12 13 14 15 18 21 22 22 22 22 23 23 24 25 26
7 4 3 1 1 1 1 0 0 1 3 3 2 1 0 0 1 2 1 0 0 0 1 1 0 0 1 1 2 1 1 1 0 0 1 1 1 1 1 2 3 3 2 1 1 2 3 3 2 0 1 2 2 3 3 3 4 5 7 7 7 8 10 9 7 8 12 14 14 12 12 12 12 13 14 16 18 20 22 22 21 21 24 26 26 26 26
4 4 2 0 1 1 0 0 1 1 2 2 2 1 1 1 1 1 1 0 0 0 1 0 0 0 1 1 1 0 1 0 1 1 0 1 2 2 2 3 3 1 2 2 2 3 3 3 2 0 2 3 3 3 2 2 4 6 6 5 7 9 9 7 6 10 14 15 14 12 12 13 14 14 16 17 18 19 20 22 22 22 24 27 26 25 25
2 2 1 0 1 1 1 0 2 2 1 2 2 1 1 1 2 1 1 1 0 1 1 1 1 1 1 0 0 0 0 1 1 1 2 2 2 3 3 3 1 3 3 3 3 3 3 4 3 1 2 3 2 2 2 3 5 5 4 6 9 10 7 5 7 11 15 15 14 13 13 13 14 15 16 18 18 16 18 22 24 24 24 25 25 24 24
Wind_Direction
351 351 347 342 345 349 347 344 342 344 355 2 355 345 318 316 319 340 357 355 347 354 38 27 29 68 106 177 117 56 300 137 161 193 173 239 279 271 237 89 11 8 30 344 345 18 324 307 28 15 32 55 8 336 338 328 311 289 327 66 26 342 237 255 273 263 70 79 230 311 339 353 55 65 34 36 54 72 119 243 299 342 263 267 260 251 259
347 346 344 342 344 346 343 343 346 350 359 4 0 356 7 333 297 313 357 1 9 85 42 5 28 84 160 207 125 80 358 11 321 136 75 30 340 315 322 64 22 3 42 316 310 15 2 7 60 26 346 37 246 311 336 337 358 35 29 6 358 328 271 2 321 301 347 24 342 344 350 5 32 50 45 53 63 54 32 246 16 261 236 240 255 255 254
343 344 343 340 341 342 343 348 352 353 359 5 4 348 294 319 258 228 2 20 40 96 157 346 351 92 119 174 108 175 107 30 5 17 43 20 6 350 330 57 334 321 50 261 275 254 208 300 49 30 340 43 181 260 339 331 5 50 341 301 309 302 291 337 331 303 315 327 325 343 352 346 350 62 60 46 49 53 9 316 27 259 328 353 281 272 320
342 341 338 338 339 341 345 351 354 353 356 1 1 335 296 327 344 281 324 32 50 93 190 348 341 37 60 100 75 302 314 94 35 311 29 33 356 282 236 201 220 259 271 277 280 224 175 181 9 359 345 18 167 182 344 343 17 359 313 288 276 308 292 288 264 256 275 295 294 320 355 334 318 19 53 66 79 71 54 358 282 297 334 328 287 324 333
338 336 335 337 340 342 345 347 349 352 354 358 359 351 335 332 326 344 313 355 42 81 46 10 10 56 352 49 67 345 332 114 140 300 54 53 317 251 237 301 265 278 323 315 309 306 169 158 68 341 289 294 121 149 235 256 131 323 307 273 217 305 285 315 310 275 288 303 298 310 333 319 321 14 27 58 105 96 78 4 294 321 330 288 329 349 329
334 334 336 341 346 349 350 346 345 347 351 356 358 357 39 13 266 311 75 325 21 37 10 1 3 37 353 47 83 353 349 44 41 350 69 173 227 215 61 358 265 298 348 338 315 334 336 182 133 98 275 306 336 171 280 15 152 186 315 15 47 334 279 359 23 297 290 283 279 286 299 319 36 42 21 30 76 108 107 255 293 327 312 287 326 334 316
334 337 341 347 352 353 354 350 346 343 344 352 359 4 37 60 72 33 273 66 49 355 298 325 326 320 13 84 63 359 5 30 49 280 280 161 152 308 19 55 22 360 13 332 290 336 346 279 255 51 11 306 295 280 1 353 200 221 329 41 49 64 263 285 213 272 282 276 270 269 230 92 62 51 27 24 28 31 45 7 334 344 318 302 319 314 310
338 342 346 349 351 350 350 351 349 343 343 352 15 33 27 47 60 23 297 88 98 161 249 289 293 277 190 83 16 339 18 33 31 4 359 5 46 353 351 8 353 331 297 274 281 28 27 270 274 348 18 335 330 11 15 14 231 250 49 34 16 84 41 301 243 281 299 292 245 223 125 96 72 55 30 22 24 24 22 4 350 343 314 308 315 307 313
343 345 346 346 347 346 344 345 345 343 355 25 38 24 36 15 5 22 320 293 140 147 229 252 304 338 22 20 350 351 35 29 332 8 34 25 31 14 349 346 331 269 220 248 354 46 24 347 336 353 351 337 347 6 7 11 1 358 73 347 347 73 323 313 326 314 301 210 278 13 95 88 71 53 26 13 25 26 9 346 333 324 317 322 329 329 340
345 345 346 345 344 342 339 340 341 336 346 18 351 346 85 47 3 46 334 283 174 35 292 278 6 21 349 12 15 24 42 21 336 5 60 64 64 31 329 327 316 277 218 76 36 20 351 345 354 348 319 300 326 30 42 25 17 11 74 274 342 41 316 310 342 319 289 310 330 345 98 97 57 40 21 8 25 20 358 337 327 334 349 347 343 351 341
346 345 345 344 342 341 339 339 337 324 304 3 12 11 50 333 316 334 349 330 20 343 329 9 46 56 357 23 25 25 28 26 31 43 143 125 100 337 298 303 304 309 329 10 334 311 311 323 315 298 287 315 10 67 74 54 41 18 30 141 199 256 282 284 318 304 288 313 323 318 230 131 76 56 26 14 32 21 353 329 334 13 36 21 347 347 346
349 347 346 346 345 344 345 343 338 325 277 170 80 358 331 320 317 307 336 350 322 327 12 48 23 351 36 8 327 3 32 27 56 64 297 314 118 175 315 317 301 298 267 268 275 266 276 308 286 262 114 82 81 84 72 59 48 29 48 63 300 285 283 287 285 219 272 308 328 331 337 142 141 95 38 25 33 12 349 335 11 43 35 12 356 350 348
354 353 352 354 354 353 355 355 354 354 204 167 113 10 338 347 348 322 329 344 352 27 56 112 230 231 183 292 298 100 99 85 113 204 244 306 27 85 51 4 324 297 294 298 290 262 256 200 152 117 99 117 110 83 68 55 38 31 41 27 322 294 296 297 286 268 289 329 343 348 53 91 89 49 27 18 10 3 352 345 19 44 27 9 355 341 344
2 2 3 5 6 6 10 9 14 45 129 156 113 50 62 49 18 352 346 32 73 57 74 144 136 345 319 315 341 103 154 150 181 235 159 64 348 23 66 64 51 356 321 314 273 244 266 234 197 147 134 145 103 78 86 47 20 19 13 352 337 312 316 340 343 351 65 340 312 282 150 78 31 20 11 6 4 358 339 319 338 48 27 5 352 343 346
13 15 16 19 21 23 27 28 37 69 113 131 102 76 82 59 32 8 340 30 100 66 37 74 356 323 316 344 359 318 224 169 184 199 97 90 346 39 74 113 160 215 312 307 236 241 278 298 302 312 196 148 345 206 148 119 4 354 338 314 306 301 306 30 21 10 55 10 317 307 219 224 28 8 346 356 353 328 314 295 278 41 19 3 356 349 343
26 27 27 30 35 38 41 46 56 75 96 107 93 63 43 42 30 7 319 312 77 105 22 11 328 301 301 311 37 359 325 325 343 61 101 128 161 126 120 159 168 224 273 268 248 256 260 219 280 301 294 337 307 241 181 141 145 347 300 275 316 330 284 206 277 340 27 20 318 308 286 189 40 353 336 352 338 315 310 287 261 9 11 3 352 340 333
36 37 36 40 44 46 50 55 61 69 74 75 71 49 32 28 23 4 328 350 65 98 35 353 310 275 287 301 16 30 327 316 345 11 138 144 152 145 148 181 209 233 249 276 260 250 268 265 270 303 329 59 21 267 276 60 65 20 315 293 24 12 336 10 39 360 355 351 300 296 32 74 14 343 335 343 327 315 315 300 309 352 358 355 345 335 333
44 44 43 45 48 48 51 54 54 57 58 56 61 56 42 38 34 12 350 39 78 101 49 1 335 305 353 329 333 359 339 315 324 290 227 141 137 126 131 210 246 236 210 330 311 293 302 297 329 348 313 342 72 320 8 26 14 7 354 351 30 18 344 26 52 13 341 332 310 309 143 77 357 341 347 351 336 321 331 322 327 340 337 338 349 346 340
47 47 46 46 48 47 47 47 46 48 49 48 54 53 42 43 40 20 9 32 57 82 52 7 2 14 358 307 266 286 289 234 320 317 327 32 187 308 311 302 330 217 189 253 310 313 318 317 78 30 313 356 52 51 41 32 1 356 5 11 29 13 337 14 48 19 338 314 308 308 191 69 8 350 1 12 1 344 336 330 330 336 333 339 352 349 342
48 48 46 44 43 42 41 42 41 41 44 44 50 55 50 44 32 30 58 97 95 84 60 27 25 29 20 20 31 332 316 314 336 348 360 326 295 359 359 342 349 327 271 314 328 343 19 6 9 32 338 1 57 104 86 72 48 20 24 42 25 357 332 358 12 10 340 316 327 333 291 20 12 3 9 30 25 341 326 329 330 340 345 346 345 342 343
53 52 49 44 40 37 37 38 37 37 41 44 53 62 61 57 48 47 79 111 110 103 71 35 44 55 50 53 57 36 26 40 13 359 353 310 306 38 10 314 340 359 351 349 325 312 79 20 352 35 9 355 51 78 113 121 77 32 40 70 28 3 32 12 343 5 32 317 324 15 15 3 14 13 7 10 3 345 340 337 333 343 352 344 334 335 341
62 59 51 42 37 34 34 35 35 36 40 46 63 77 76 71 65 61 81 91 84 85 108 102 84 82 77 66 56 51 57 59 35 6 326 304 310 359 338 343 36 28 338 344 326 313 28 19 337 359 32 41 55 51 58 118 92 14 18 40 43 27 27 327 261 322 351 279 284 27 31 6 10 12 360 355 353 351 353 350 340 341 344 337 331 334 337
69 60 46 37 34 33 33 33 34 35 39 50 70 91 98 92 84 79 87 92 89 89 110 119 103 85 76 58 43 46 56 53 38 35 24 323 321 348 32 34 36 327 330 34 9 310 358 11 327 27 44 31 34 60 59 61 66 53 34 30 69 59 22 330 268 350 350 302 30 42 18 356 356 353 352 1 357 351 358 1 350 343 338 331 331 334 335
69 54 38 32 32 33 30 31 34 35 43 55 73 97 105 99 87 79 86 97 105 108 107 113 107 68 43 14 23 36 29 24 28 23 4 340 330 32 76 35 357 330 16 33 352 277 327 340 299 81 70 7 339 49 73 62 50 63 50 22 15 50 26 348 332 8 343 302 57 44 9 343 339 336 349 3 355 345 355 3 350 342 337 331 330 333 333
58 40 29 24 27 29 27 28 32 36 46 62 81 107 113 89 55 64 88 108 148 139 104 91 44 359 352 359 24 21 357 3 20 8 5 352 297 286 332 336 330 302 300 322 321 311 323 333 4 65 75 351 3 39 60 61 39 43 61 48 344 345 360 347 344 347 305 283 360 13 347 322 321 339 359 355 342 341 352 349 338 335 336 333 331 331 332
32 19 15 15 20 24 22 24 31 39 53 70 82 103 111 48 18 32 48 320 306 75 98 95 44 14 35 38 24 350 344 10 39 22 1 323 255 256 310 321 312 265 260 282 309 339 18 35 38 49 47 359 23 58 64 67 67 62 70 65 337 317 336 340 326 314 293 297 341 349 336 311 316 358 355 343 339 348 350 341 334 333 334 333 330 331 333
15 3 4 10 16 19 18 20 26 38 59 77 80 80 76 53 31 20 20 32 23 64 90 103 120 121 95 64 27 5 7 32 44 30 20 14 26 37 302 302 298 277 277 285 310 8 45 61 49 42 59 53 53 71 81 88 92 82 64 39 354 341 354 342 325 318 316 324 340 345 334 308 315 339 341 339 350 356 347 338 336 336 337 336 332 330 332
6 360 3 12 15 15 15 15 17 26 69 96 86 77 69 57 43 32 40 92 106 87 87 111 131 145 137 58 25 21 32 55 61 49 29 16 19 2 308 303 303 306 327 358 44 45 50 67 65 53 100 95 60 67 107 111 94 72 42 24 15 6 351 340 333 315 309 321 336 340 323 306 316 328 332 343 356 353 339 334 337 339 341 341 335 331 331
355 355 4 10 11 13 14 12 12 19 95 129 98 75 65 51 44 56 84 100 102 99 95 106 119 124 130 22 19 19 34 57 61 46 25 18 20 13 352 344 346 340 352 49 78 80 62 62 77 68 348 328 97 135 131 93 82 64 34 22 14 356 336 333 326 310 307 320 333 330 316 310 315 321 333 351 354 347 335 334 338 340 342 341 336 333 332
344 350 0 4 10 19 21 21 24 33 82 150 138 66 66 46 48 78 100 101 101 108 105 93 110 123 133 74 23 4 18 44 51 41 35 40 39 28 20 12 360 359 28 62 63 81 92 72 72 63 354 351 52 114 64 53 97 96 47 22 359 335 329 334 330 320 316 321 328 326 319 311 311 323 343 349 345 341 337 335 336 337 339 338 335 333 333
339 349 359 9 27 40 44 46 47 49 63 94 82 47 110 6 19 85 116 94 85 102 93 76 101 143 151 112 9 345 352 18 44 43 34 34 34 28 30 33 18 18 46 80 52 54 76 55 49 55 7 7 47 91 64 62 101 67 18 3 341 330 340 348 343 330 323 326 330 325 314 308 318 333 340 338 340 343 339 331 332 335 336 334 333 332 332
343 354 5 26 53 72 74 66 60 59 64 70 69 72 106 67 24 75 130 118 101 107 94 87 116 141 153 156 8 356 354 329 246 47 26 17 13 21 36 60 59 34 34 65 80 62 65 65 69 67 11 6 50 86 74 76 87 356 351 345 334 342 1 355 337 329 333 341 340 325 311 319 334 334 329 334 342 342 334 329 332 335 332 329 328 328 329
348 359 17 51 76 102 103 79 62 61 66 69 69 67 68 68 65 85 108 100 75 59 53 86 114 86 131 173 136 7 7 354 236 227 33 16 355 337 27 91 106 36 17 24 83 93 84 100 98 79 21 7 53 95 91 79 46 352 349 340 336 356 7 344 329 330 340 344 340 320 309 320 328 327 328 334 338 336 332 332 334 332 330 330 329 328 329
350 9 44 73 83 112 131 105 68 68 72 70 67 63 62 63 61 64 91 100 65 55 49 51 84 36 14 162 147 360 2 11 359 6 28 4 351 353 42 111 111 43 11 17 75 91 81 83 88 90 58 12 24 84 96 52 15 7 351 338 345 5 353 330 328 337 338 336 327 313 309 319 325 327 329 331 331 331 333 335 334 332 332 333 331 330 331
3 39 70 93 94 104 120 119 101 91 78 68 68 68 67 66 61 58 60 59 53 62 45 26 49 49 9 354 251 352 358 1 350 1 6 337 358 22 355 30 59 50 326 338 56 69 67 25 25 81 92 32 24 79 79 11 5 3 344 338 357 7 343 328 333 335 332 329 321 313 319 329 330 329 331 330 329 332 335 336 335 335 333 329 330 332 332
52 77 94 110 110 104 101 96 98 100 70 79 97 90 75 69 64 61 61 60 59 70 81 41 53 41 349 323 310 351 2 8 206 240 327 329 359 351 278 36 68 84 273 14 60 53 15 334 5 75 82 68 89 105 69 18 8 353 340 346 12 12 343 332 334 331 327 324 319 319 331 337 332 331 334 329 328 333 337 336 335 336 333 329 331 333 332
86 102 115 121 113 95 76 56 46 72 123 131 131 98 56 55 65 59 55 53 53 54 60 68 59 31 346 267 299 343 358 1 293 11 46 358 333 327 340 52 77 183 27 53 64 50 17 20 53 82 74 89 115 101 64 45 24 348 338 360 23 11 348 337 334 329 322 319 321 329 337 335 332 335 334 326 329 337 340 336 335 336 334 331 332 333 331
101 110 122 124 96 58 34 22 48 111 128 135 143 12 5 15 53 51 36 35 41 42 47 69 57 4 327 276 321 353 2 335 313 355 62 161 317 329 16 65 89 159 89 50 13 203 49 39 64 95 97 120 118 100 71 59 25 348 358 50 35 7 352 343 338 333 327 325 331 338 338 335 336 338 334 328 333 338 337 333 333 334 332 331 330 329 328
107 109 108 91 64 41 40 89 108 123 123 72 11 18 14 10 25 28 359 16 40 24 23 53 51 5 352 348 355 17 26 347 303 339 11 31 46 27 358 20 18 117 97 70 331 83 70 46 103 137 168 168 143 112 77 62 18 357 45 73 42 7 356 347 338 333 327 322 324 336 346 346 340 334 330 329 332 333 332 332 332 332 332 330 328 327 327
106 87 60 68 87 84 95 112 124 136 99 19 26 44 28 21 31 8 321 23 47 25 6 33 50 7 22 349 297 350 25 31 3 335 343 342 105 95 338 309 343 62 66 9 282 37 75 167 206 199 188 159 138 101 63 46 2 355 54 71 35 4 359 351 337 329 324 319 321 338 353 351 337 325 323 326 328 328 328 329 330 331 330 328 327 326 326
96 48 72 120 119 100 90 86 67 29 32 49 42 37 26 20 27 6 19 36 34 5 8 28 348 337 30 24 291 321 10 22 44 170 315 311 40 77 27 290 285 76 80 283 284 342 47 256 227 233 98 110 107 74 44 24 345 352 53 60 23 3 3 354 335 326 326 332 337 346 348 341 331 323 322 325 325 323 324 326 327 328 328 326 325 325 326
108 110 114 118 115 100 78 52 34 29 37 37 33 33 25 358 2 15 39 49 16 298 331 42 341 305 315 340 284 259 335 358 357 259 271 301 346 59 82 297 8 60 108 267 290 56 354 284 268 251 101 104 102 70 32 360 334 350 48 43 17 7 6 350 331 324 336 354 359 353 343 332 324 320 321 323 323 321 321 324 325 325 325 325 324 324 326
112 116 117 111 89 51 32 22 21 34 38 31 34 24 351 354 33 37 352 32 21 324 328 345 334 322 324 336 223 214 236 330 351 230 258 297 314 3 39 42 30 9 250 289 354 11 240 252 254 127 107 104 95 60 15 341 333 3 38 25 9 6 359 341 325 323 340 356 359 350 339 327 319 318 320 322 324 322 322 324 325 324 322 323 323 323 325
119 114 96 75 26 17 17 355 356 39 45 28 29 33 359 345 352 344 329 338 2 356 359 16 360 345 331 347 67 170 262 283 148 140 329 322 339 49 52 52 354 271 282 4 359 294 257 257 206 102 100 90 58 29 356 334 342 22 23 360 355 358 348 334 325 326 339 349 350 343 335 326 321 320 320 322 326 325 322 324 327 326 324 324 322 322 324
206 7 38 38 2 357 13 357 357 41 57 16 346 53 39 334 330 341 333 297 311 337 18 49 13 325 280 262 117 113 246 295 66 127 319 342 23 44 47 228 243 356 47 27 293 283 278 271 110 99 82 31 8 6 339 329 357 39 19 345 346 350 341 331 330 339 352 355 348 339 332 329 327 324 321 321 325 325 323 324 327 329 328 327 323 322 326
93 74 68 65 9 337 29 57 18 16 85 67 7 18 23 6 359 6 342 289 334 350 356 359 339 311 284 283 313 127 200 319 335 196 251 23 41 9 249 206 42 26 28 343 276 267 259 110 95 89 58 6 352 343 323 326 15 46 22 340 338 340 334 329 334 346 355 354 345 337 332 329 327 325 321 320 322 325 326 326 327 329 330 328 325 324 326
81 37 60 79 53 341 15 80 55 358 50 59 44 43 39 20 18 58 53 14 346 341 318 268 236 234 245 260 328 150 241 4 32 348 356 89 148 271 344 73 80 7 328 260 265 264 243 88 79 73 48 3 337 324 317 327 19 37 9 339 331 329 325 325 331 339 346 347 342 336 332 328 324 323 321 319 321 325 327 327 327 330 330 328 326 327 327
94 27 57 91 98 333 37 102 149 132 81 64 60 81 81 292 232 98 84 327 313 329 320 301 295 271 248 221 174 265 300 28 37 339 331 107 105 348 7 22 333 287 204 202 239 282 39 83 104 115 56 352 323 310 313 336 16 24 359 335 326 323 322 324 328 334 342 344 339 332 328 325 323 322 321 320 320 322 325 327 328 330 330 329 328 330 331
75 72 75 94 127 114 87 99 195 137 114 115 168 184 198 238 103 99 118 261 290 327 275 268 314 338 295 237 108 18 344 13 16 327 10 47 61 65 64 335 298 285 236 212 235 8 62 113 149 153 144 291 298 302 309 339 19 14 344 324 321 323 322 321 324 333 340 340 334 327 325 325 323 321 322 320 318 319 323 327 329 330 332 333 334 334 335
55 65 74 77 81 94 106 167 206 150 159 169 172 166 206 308 59 92 118 234 301 279 257 250 217 228 266 24 57 40 336 314 343 48 30 43 142 141 148 239 244 234 216 201 57 59 87 123 131 72 300 268 281 302 318 352 10 346 324 316 322 324 320 317 322 333 336 335 331 327 325 326 324 321 319 318 317 318 323 329 333 335 336 338 340 339 338
48 66 77 117 94 86 151 168 101 114 160 157 116 73 6 359 59 93 108 351 313 254 245 220 88 5 6 30 44 343 250 251 57 43 286 226 173 150 194 237 233 165 100 87 85 90 103 118 117 81 295 288 302 318 328 340 332 321 315 321 326 321 314 311 321 330 333 334 332 326 323 322 321 319 318 320 322 323 326 331 337 339 338 338 340 340 338
59 71 79 137 58 9 327 239 114 102 100 98 86 41 352 33 80 101 152 209 263 335 20 75 81 41 20 357 251 217 89 64 10 303 248 222 188 176 195 216 171 102 103 105 103 107 117 125 129 174 259 274 293 304 299 302 307 309 321 333 327 315 301 300 320 330 333 334 330 326 324 323 321 320 323 328 330 328 325 326 331 334 334 334 337 338 337